[[{"header":{"parameterUnit":"m.s-1","parameterCategory":1,"la1":30.2991,"la2":30.254,"lo1":-89.0895,"lo2":-89.0444,"dy":0.0017,"dx":0.0017,"nx":28,"ny":28,"refTime":"2023-07-27T09:00:00:Z","depth":0,"parameterNumber":2,"parameterNumberName":"U-component_of_WINDS"},"data":[0,0,0,0,0,0,0,0,0,0,0,0,0,0,0,0,0,0,0,0,0,0,0,0,0,0,0,0,0,0,0,0,0,0,0,0,0,0,0,0,0,0,0,0,0,0,0,0,0,0,0,0,0,0,0,0,0,0,-0.4704,-0.4704,0,-0.4681,-0.4681,-0.4681,-0.4688,-0.4688,-0.4689,-0.4689,-0.4665,-0.4664,-0.4663,0,0,0,0,0,0,0,0,0,0,0,0,0,-0.4753,-0.4752,-0.4704,-0.4704,-0.4704,-0.4681,-0.4681,-0.4681,-0.4687,-0.4688,-0.4689,-0.4689,-0.4665,-0.4664,-0.4663,0,0,0,0,0,0,0,0,0,0,0,0,0,-0.4731,-0.4752,-0.4704,-0.4704,-0.4704,-0.4681,-0.4681,-0.4681,-0.4687,-0.4688,-0.4689,-0.4689,-0.4666,-0.4664,-0.4663,-0.4638,0,0,-0.4658,-0.4657,0,0,0,0,0,0,0,0,-0.4733,-0.4729,-0.4705,-0.4704,-0.4704,-0.4688,-0.4689,-0.4666,-0.4687,-0.4694,-0.4689,-0.469,-0.4672,-0.467,-0.4664,-0.4637,-0.4636,-0.4657,-0.4656,-0.4656,-0.4655,0,0,0,0,0,0,0,-0.4734,-0.473,-0.4695,-0.4704,-0.4704,-0.4705,-0.4703,-0.4685,-0.4679,-0.4693,-0.4694,-0.4691,-0.4672,-0.4666,-0.4664,-0.4636,-0.4657,-0.4656,-0.4655,-0.4654,-0.4587,-0.4586,0,0,0,0,0,0,-0.4736,-0.4732,-0.4696,-0.4694,-0.472,-0.4704,-0.4701,-0.4692,-0.4679,-0.4678,-0.469,-0.4691,-0.4668,-0.4665,-0.4663,-0.4632,-0.4656,-0.4654,-0.4653,-0.4587,-0.4586,-0.4586,0,0,0,0,0,0,-0.4737,-0.4733,-0.4697,-0.4713,-0.4709,-0.4702,-0.4692,-0.4692,-0.4685,-0.4677,-0.4676,-0.4685,-0.4668,-0.4665,-0.4644,-0.4632,-0.4654,-0.4652,-0.4588,-0.4587,-0.4586,-0.4572,0,0,0,0,0,0,-0.4738,-0.4733,-0.4724,-0.4713,-0.4708,-0.4679,-0.4692,-0.4691,-0.4682,-0.4683,-0.4672,-0.467,-0.4669,-0.4646,-0.4642,-0.463,-0.4651,-0.4589,-0.4588,-0.4586,-0.4574,-0.4571,-0.4568,0,0,0,0,0,-0.474,-0.4721,-0.4723,-0.4719,-0.4696,-0.4678,-0.4675,-0.4674,-0.4681,-0.4672,-0.4667,-0.4671,-0.4634,-0.4644,-0.464,-0.4627,-0.459,-0.4588,-0.4586,-0.4575,-0.4571,-0.4568,0,0,0,0,0,0,-0.473,-0.4719,-0.4722,-0.4699,-0.4689,-0.4679,-0.4667,-0.467,-0.4658,-0.4659,-0.4658,-0.4655,-0.4633,-0.4628,-0.464,-0.4602,-0.4613,-0.461,-0.4606,-0.4602,-0.46,-0.4601,-0.4649,0,0,0,0,0,-0.4726,-0.4712,-0.4703,-0.4683,-0.4679,-0.4674,-0.4666,-0.4665,-0.4655,-0.4651,-0.4645,-0.4634,-0.462,-0.4611,-0.4598,-0.4573,-0.457,-0.4562,-0.4559,-0.4557,-0.4554,-0.454,-0.4535,-0.4579,-0.4579,-0.4579,0,0,-0.4715,-0.4708,-0.4699,-0.4681,-0.4674,-0.4659,-0.467,-0.4654,-0.4643,-0.4649,-0.4628,-0.4623,-0.4612,-0.4588,-0.4578,-0.4583,-0.4541,-0.4555,-0.4553,-0.4551,-0.4537,-0.4533,-0.4529,-0.4578,-0.4578,-0.4579,0,0,-0.4689,-0.4683,-0.4665,-0.4657,-0.4646,-0.4643,-0.4639,-0.4628,-0.4625,-0.4604,-0.4608,-0.4595,-0.4571,-0.4562,-0.4555,-0.4525,-0.4528,-0.4521,-0.4506,-0.4492,-0.4488,-0.4485,-0.4473,-0.4469,-0.4519,-0.4518,-0.4518,0,-0.4678,-0.4656,-0.4656,-0.4639,-0.4631,-0.4635,-0.4617,-0.461,-0.4595,-0.4589,-0.4595,-0.4565,-0.4558,-0.4532,-0.4525,-0.4519,-0.4514,-0.4522,-0.4489,-0.4486,-0.4483,-0.4471,-0.4467,-0.4518,-0.4518,-0.4518,-0.4518,0,-0.4642,-0.4627,-0.4615,-0.4599,-0.459,-0.4573,-0.4569,-0.456,-0.456,-0.4556,-0.4535,-0.4527,-0.4511,-0.4505,-0.4506,-0.448,-0.4483,-0.4489,-0.45,-0.4478,-0.4467,-0.4463,-0.4516,-0.4517,-0.4517,-0.4517,0,0,-0.4609,-0.4594,-0.4589,-0.4582,-0.457,-0.4558,-0.4541,-0.4526,-0.4517,-0.4507,-0.4492,-0.4471,-0.4477,-0.4468,-0.4468,-0.4456,-0.4431,-0.4463,-0.4463,-0.4457,-0.4401,-0.4395,-0.439,-0.4434,-0.4433,-0.4432,-0.4401,0,-0.4581,-0.4551,-0.455,-0.4522,-0.4508,-0.4512,-0.4497,-0.4487,-0.4483,-0.447,-0.4466,-0.4451,-0.446,-0.4454,-0.4443,-0.4437,-0.442,-0.4439,-0.4419,-0.4418,-0.4421,-0.4385,-0.4379,-0.435,-0.4397,-0.4396,-0.4396,0,-0.4544,-0.4532,-0.4503,-0.4492,-0.4486,-0.4473,-0.4458,-0.4446,-0.4435,-0.4433,-0.4424,-0.4425,-0.4407,-0.4419,-0.4394,-0.4407,-0.4399,-0.4395,-0.4394,-0.4391,-0.4405,-0.438,-0.4341,-0.4336,-0.439,-0.439,-0.4391,0,-0.4521,-0.4498,-0.4477,-0.4471,-0.4458,-0.4449,-0.4443,-0.4433,-0.4424,-0.4411,-0.4405,-0.4391,-0.4383,-0.4372,-0.4369,-0.4379,-0.4344,-0.4356,-0.434,-0.434,-0.4332,-0.4332,-0.429,-0.4329,-0.4329,-0.4329,-0.4329,0,-0.449,-0.4471,-0.4467,-0.4454,-0.4433,-0.4432,-0.4412,-0.4407,-0.4398,-0.4384,-0.4387,-0.4373,-0.4371,-0.4357,-0.4355,-0.4333,-0.433,-0.4327,-0.4327,-0.4326,-0.4326,-0.432,-0.4322,-0.4328,-0.4328,-0.4328,-0.4328,0,-0.446,-0.4457,-0.4434,-0.4424,-0.4421,-0.4406,-0.4397,-0.4384,-0.438,-0.4362,-0.4358,-0.4352,-0.4336,-0.4332,-0.4313,-0.4311,-0.4286,-0.4288,-0.4289,-0.4289,-0.4273,-0.4274,-0.4224,-0.4217,-0.4261,-0.4261,-0.426,0,-0.444,-0.4426,-0.4414,-0.4404,-0.4398,-0.4383,-0.4374,-0.4372,-0.4362,-0.4348,-0.4337,-0.4321,-0.4308,-0.4282,-0.4275,-0.426,-0.4261,-0.4245,-0.4259,-0.4259,-0.4259,-0.426,-0.4258,-0.4242,-0.4241,-0.4241,-0.424,0,-0.4403,-0.4402,-0.4388,-0.4374,-0.4363,-0.4351,-0.434,-0.4332,-0.4329,-0.4318,-0.4301,-0.4291,-0.4271,-0.4255,-0.4239,-0.4233,-0.4236,-0.4236,-0.4231,-0.423,-0.4231,-0.4229,-0.428,-0.4237,-0.4237,-0.4238,-0.4238,-0.4238,-0.4377,-0.4364,-0.4353,-0.4338,-0.433,-0.4319,-0.4306,-0.4301,-0.4287,-0.4271,-0.4271,-0.4252,-0.4241,-0.4221,-0.4213,-0.4199,-0.4204,-0.4197,-0.4195,-0.4193,-0.4191,-0.4235,-0.4196,-0.4196,-0.4196,-0.4196,-0.4196,0,-0.4339,-0.4333,-0.4318,-0.4303,-0.429,-0.4295,-0.4283,-0.4272,-0.4255,-0.4245,-0.4232,-0.4212,-0.4196,-0.4189,-0.4173,-0.4162,-0.4163,-0.4158,-0.4158,-0.4156,-0.4188,-0.4193,-0.4158,-0.4158,-0.4158,-0.4158,-0.4158,-0.4158,-0.4318,-0.4297,-0.4294,-0.4268,-0.4262,-0.4243,-0.4236,-0.4226,-0.4218,-0.4195,-0.4182,-0.4177,-0.4168,-0.4151,-0.4136,-0.4135,-0.4128,-0.4122,-0.4121,-0.415,-0.4154,-0.4158,-0.4163,-0.4121,-0.4121,-0.409,-0.4089,-0.4089]},{"header":{"parameterUnit":"m.s-1","parameterCategory":1,"la1":30.2991,"la2":30.254,"lo1":-89.0895,"lo2":-89.0444,"dy":0.0017,"dx":0.0017,"nx":28,"ny":28,"refTime":"2023-07-27T09:00:00:Z","depth":0,"parameterNumber":3,"parameterNumberName":"V-component_of_WINDS"},"data":[0,0,0,0,0,0,0,0,0,0,0,0,0,0,0,0,0,0,0,0,0,0,0,0,0,0,0,0,0,0,0,0,0,0,0,0,0,0,0,0,0,0,0,0,0,0,0,0,0,0,0,0,0,0,0,0,0,0,0.1744,0.1743,0,0.1663,0.1662,0.1661,0.1583,0.1582,0.1581,0.158,0.1495,0.1494,0.1492,0,0,0,0,0,0,0,0,0,0,0,0,0,0.1831,0.183,0.1744,0.1743,0.1742,0.1663,0.1662,0.166,0.1583,0.1582,0.1581,0.158,0.1495,0.1494,0.1492,0,0,0,0,0,0,0,0,0,0,0,0,0,0.1776,0.1829,0.1744,0.1694,0.1689,0.1663,0.1662,0.166,0.1583,0.1582,0.158,0.1579,0.1496,0.1494,0.1492,0.1509,0,0,0.1486,0.1485,0,0,0,0,0,0,0,0,0.1779,0.1773,0.1702,0.1697,0.1691,0.1631,0.1661,0.1609,0.1584,0.1623,0.158,0.1578,0.1541,0.1536,0.1523,0.1505,0.1501,0.1486,0.1484,0.1484,0.1483,0,0,0,0,0,0,0,0.1783,0.1776,0.1712,0.1701,0.1695,0.1675,0.1665,0.1651,0.1592,0.162,0.1614,0.1605,0.1538,0.1526,0.1521,0.15,0.1486,0.1484,0.1483,0.1482,0.1492,0.1493,0,0,0,0,0,0,0.1795,0.1779,0.1714,0.1709,0.1732,0.1674,0.1664,0.1652,0.1591,0.1581,0.1607,0.1602,0.153,0.1523,0.1518,0.1534,0.1484,0.1482,0.148,0.149,0.1492,0.1494,0,0,0,0,0,0,0.1797,0.179,0.1718,0.1743,0.1732,0.1675,0.1662,0.1651,0.1639,0.1582,0.1571,0.1605,0.1528,0.152,0.1512,0.153,0.1481,0.1479,0.1489,0.1491,0.1493,0.1567,0,0,0,0,0,0,0.18,0.1791,0.1797,0.1743,0.1731,0.1714,0.1663,0.1651,0.1636,0.1629,0.1577,0.1567,0.1527,0.1515,0.151,0.1526,0.1477,0.1487,0.149,0.1492,0.1563,0.1571,0.1579,0,0,0,0,0,0.1803,0.1821,0.1798,0.179,0.1738,0.1715,0.1708,0.1661,0.1637,0.1643,0.1606,0.1569,0.1529,0.1515,0.1508,0.1524,0.1485,0.1489,0.1492,0.1559,0.157,0.1579,0,0,0,0,0,0,0.1877,0.1813,0.1787,0.1788,0.1758,0.1702,0.1708,0.1674,0.165,0.1644,0.1587,0.1576,0.1574,0.1548,0.1534,0.1538,0.1502,0.1504,0.1555,0.1565,0.1573,0.1579,0.1476,0,0,0,0,0,0.1894,0.1882,0.1826,0.1832,0.1818,0.1766,0.1754,0.1721,0.1687,0.1674,0.1637,0.1605,0.1585,0.1573,0.1552,0.1558,0.1546,0.1566,0.1574,0.1581,0.1584,0.1585,0.1594,0.1505,0.1505,0.1504,0,0,0.1928,0.1891,0.1887,0.1846,0.1819,0.1807,0.1756,0.1745,0.1735,0.1672,0.1662,0.1634,0.1594,0.1594,0.1591,0.1572,0.1605,0.1585,0.1591,0.159,0.159,0.1598,0.1606,0.1507,0.1506,0.1506,0,0,0.1984,0.1955,0.1957,0.1931,0.1891,0.1856,0.1857,0.1806,0.1785,0.1774,0.1727,0.1714,0.1681,0.1655,0.1638,0.1685,0.1649,0.1679,0.1722,0.1724,0.1731,0.1737,0.1754,0.1761,0.1682,0.1682,0.1682,0,0.2032,0.2012,0.1963,0.1955,0.1939,0.1881,0.1883,0.186,0.1815,0.1804,0.1783,0.1741,0.171,0.1703,0.1714,0.1702,0.1701,0.1685,0.1734,0.174,0.1745,0.176,0.1767,0.1686,0.1686,0.1685,0.1685,0,0.2073,0.206,0.2067,0.2025,0.2009,0.2006,0.1956,0.1946,0.1914,0.1881,0.1871,0.1832,0.1802,0.1798,0.1766,0.1786,0.1775,0.1745,0.1708,0.1758,0.1772,0.1777,0.1692,0.169,0.1689,0.1688,0,0,0.2174,0.2105,0.2108,0.2089,0.204,0.2029,0.2024,0.1995,0.1988,0.1958,0.1952,0.1926,0.1898,0.1878,0.1843,0.1845,0.1885,0.1814,0.1812,0.1829,0.1905,0.1929,0.1936,0.1861,0.1862,0.1863,0.1909,0,0.2222,0.221,0.2165,0.2166,0.2153,0.2099,0.2094,0.2063,0.2033,0.2017,0.1983,0.1965,0.1929,0.1917,0.1917,0.1881,0.19,0.1876,0.1855,0.1855,0.1868,0.1943,0.1968,0.2013,0.1914,0.1914,0.1915,0,0.2277,0.2252,0.2252,0.2204,0.2197,0.2194,0.2164,0.215,0.2114,0.2092,0.207,0.2031,0.2022,0.1988,0.1974,0.196,0.1948,0.1929,0.1929,0.1926,0.1889,0.1943,0.2026,0.2034,0.1923,0.1922,0.1922,0,0.2352,0.2318,0.2313,0.2298,0.2242,0.2241,0.2218,0.218,0.2166,0.214,0.213,0.2103,0.2088,0.2068,0.2023,0.2001,0.2015,0.1976,0.1996,0.1997,0.2002,0.2002,0.2085,0.1993,0.1993,0.1993,0.1993,0,0.2411,0.2413,0.2346,0.2344,0.2345,0.2293,0.2295,0.2266,0.2233,0.2224,0.2174,0.2167,0.2107,0.2092,0.2057,0.2052,0.2045,0.2027,0.2017,0.2031,0.2034,0.2024,0.202,0.1995,0.1995,0.1994,0.1994,0,0.2494,0.245,0.2441,0.2389,0.2376,0.2379,0.2334,0.2329,0.2296,0.2284,0.2279,0.2226,0.2206,0.2159,0.2126,0.2102,0.2106,0.2089,0.2119,0.2113,0.2136,0.2135,0.2216,0.2224,0.2127,0.2128,0.2129,0,0.2535,0.2536,0.2484,0.2474,0.2453,0.2438,0.2424,0.2372,0.2359,0.2319,0.2319,0.2295,0.2274,0.2245,0.2203,0.2178,0.216,0.219,0.2156,0.217,0.2161,0.2162,0.2162,0.2198,0.2199,0.22,0.2201,0,0.2613,0.2591,0.2572,0.2546,0.253,0.2507,0.248,0.2475,0.2418,0.2405,0.2385,0.2368,0.2335,0.2313,0.2281,0.2256,0.2219,0.2212,0.2215,0.223,0.2248,0.2239,0.214,0.2211,0.221,0.2209,0.2208,0.2208,0.2676,0.2675,0.2638,0.2619,0.2594,0.2571,0.2564,0.253,0.2512,0.2482,0.2452,0.2435,0.2399,0.2353,0.2331,0.2316,0.2297,0.2302,0.2303,0.2306,0.2312,0.225,0.231,0.231,0.231,0.2309,0.2309,0,0.2752,0.2726,0.2709,0.2674,0.2659,0.2626,0.2595,0.2585,0.2571,0.254,0.252,0.2497,0.2475,0.2432,0.2406,0.2402,0.2385,0.2397,0.2397,0.2392,0.233,0.233,0.2412,0.2412,0.2412,0.2412,0.2412,0.2412,0.279,0.2785,0.2759,0.2742,0.2715,0.2698,0.2684,0.2662,0.2638,0.2614,0.2596,0.2568,0.2532,0.2503,0.2482,0.2469,0.2462,0.2481,0.2463,0.2406,0.2397,0.2387,0.2387,0.2479,0.248,0.2526,0.2527,0.2527]}]]